Time,TemperatureF,DewpointF,PressureIn,WindDirection,WindDirectionDegrees,WindSpeedMPH,WindSpeedGustMPH,Humidity,HourlyPrecipIn,Conditions,Clouds,dailyrainin,SoftwareType,DateUTC
2013-01-21 00:17:00,38.9,28.9,30.22,East,88,11.0,18.0,67,0.00,,,0.00,Wunderground v.1.15,2013-01-21 08:17:00,
2013-01-21 00:26:00,38.7,28.7,30.22,East,93,10.0,11.0,67,0.00,,,0.00,Wunderground v.1.15,2013-01-21 08:26:00,
2013-01-21 00:31:00,38.7,28.7,30.22,East,86,10.0,10.0,67,0.00,,,0.00,Wunderground v.1.15,2013-01-21 08:31:00,
2013-01-21 00:36:00,38.7,28.7,30.22,ENE,63,11.0,11.0,67,0.00,,,0.00,Wunderground v.1.15,2013-01-21 08:36:00,
2013-01-21 01:01:00,38.4,28.8,30.20,ENE,69,11.0,11.0,68,0.00,,,0.00,Wunderground v.1.15,2013-01-21 09:01:00,
2013-01-21 01:07:00,38.3,28.7,30.20,ENE,76,12.0,15.0,68,0.00,,,0.00,Wunderground v.1.15,2013-01-21 09:07:00,
2013-01-21 01:21:00,38.1,28.5,30.21,East,91,11.0,11.0,68,0.00,,,0.00,Wunderground v.1.15,2013-01-21 09:21:00,
2013-01-21 01:26:00,38.0,28.4,30.20,East,91,11.0,18.0,68,0.00,,,0.00,Wunderground v.1.15,2013-01-21 09:26:00,
2013-01-21 01:36:00,37.9,28.3,30.20,East,97,11.0,20.0,68,0.00,,,0.00,Wunderground v.1.15,2013-01-21 09:36:00,
2013-01-21 01:42:00,37.9,28.3,30.20,East,87,11.0,18.0,68,0.00,,,0.00,Wunderground v.1.15,2013-01-21 09:42:00,
2013-01-21 01:51:00,38.1,28.5,30.21,East,92,10.0,16.0,68,0.00,,,0.00,Wunderground v.1.15,2013-01-21 09:51:00,
2013-01-21 01:57:00,38.2,28.2,30.20,East,95,11.0,16.0,67,0.00,,,0.00,Wunderground v.1.15,2013-01-21 09:57:00,
2013-01-21 02:06:00,38.0,28.4,30.20,East,90,10.0,15.0,68,0.00,,,0.00,Wunderground v.1.15,2013-01-21 10:06:00,
2013-01-21 02:16:00,38.2,28.2,30.20,East,90,10.0,16.0,67,0.00,,,0.00,Wunderground v.1.15,2013-01-21 10:16:00,
2013-01-21 02:22:00,38.4,28.0,30.21,East,80,10.0,10.0,66,0.00,,,0.00,Wunderground v.1.15,2013-01-21 10:22:00,
2013-01-21 02:32:00,38.3,27.9,30.21,ENE,65,9.0,9.0,66,0.00,,,0.00,Wunderground v.1.15,2013-01-21 10:32:00,
2013-01-21 02:42:00,38.2,27.8,30.21,East,89,9.0,15.0,66,0.00,,,0.00,Wunderground v.1.15,2013-01-21 10:42:00,
2013-01-21 02:51:00,38.0,28.0,30.21,East,88,9.0,9.0,67,0.00,,,0.00,Wunderground v.1.15,2013-01-21 10:51:00,
2013-01-21 02:56:00,37.9,27.9,30.21,East,81,8.0,13.0,67,0.00,,,0.00,Wunderground v.1.15,2013-01-21 10:56:00,
2013-01-21 03:02:00,37.7,27.7,30.21,East,81,7.0,18.0,67,0.00,,,0.00,Wunderground v.1.15,2013-01-21 11:02:00,
2013-01-21 03:11:00,37.8,27.8,30.20,ENE,77,8.0,13.0,67,0.00,,,0.00,Wunderground v.1.15,2013-01-21 11:11:00,
2013-01-21 03:16:00,37.7,27.7,30.20,ENE,78,8.0,14.0,67,0.00,,,0.00,Wunderground v.1.15,2013-01-21 11:16:00,
2013-01-21 03:31:00,37.6,27.6,30.20,East,88,7.0,7.0,67,0.00,,,0.00,Wunderground v.1.15,2013-01-21 11:31:00,
2013-01-21 03:52:00,37.4,27.8,30.19,East,96,9.0,14.0,68,0.00,,,0.00,Wunderground v.1.15,2013-01-21 11:52:00,
2013-01-21 04:01:00,37.2,27.6,30.18,East,79,11.0,18.0,68,0.00,,,0.00,Wunderground v.1.15,2013-01-21 12:01:00,
2013-01-21 04:11:00,36.8,27.6,30.17,East,84,10.0,20.0,69,0.00,,,0.00,Wunderground v.1.15,2013-01-21 12:11:00,
2013-01-21 04:21:00,36.8,27.6,30.17,ENE,65,11.0,18.0,69,0.00,,,0.00,Wunderground v.1.15,2013-01-21 12:21:00,
2013-01-21 04:26:00,36.4,27.5,30.17,East,98,11.0,18.0,70,0.00,,,0.00,Wunderground v.1.15,2013-01-21 12:26:00,
2013-01-21 04:36:00,36.1,27.6,30.15,ENE,60,13.0,21.0,71,0.00,,,0.00,Wunderground v.1.15,2013-01-21 12:36:00,
2013-01-21 04:46:00,36.3,27.8,30.15,East,82,12.0,20.0,71,0.00,,,0.00,Wunderground v.1.15,2013-01-21 12:46:00,
2013-01-21 04:52:00,36.4,27.5,30.15,East,85,11.0,18.0,70,0.00,,,0.00,Wunderground v.1.15,2013-01-21 12:52:00,
2013-01-21 05:01:00,36.4,27.9,30.15,East,96,11.0,18.0,71,0.00,,,0.00,Wunderground v.1.15,2013-01-21 13:01:00,
2013-01-21 05:11:00,36.1,27.6,30.14,East,100,12.0,20.0,71,0.00,,,0.00,Wunderground v.1.15,2013-01-21 13:11:00,
2013-01-21 05:17:00,36.3,27.8,30.14,ENE,72,12.0,20.0,71,0.00,,,0.00,Wunderground v.1.15,2013-01-21 13:17:00,
2013-01-21 05:26:00,36.8,27.9,30.14,ENE,69,14.0,23.0,70,0.00,,,0.00,Wunderground v.1.15,2013-01-21 13:26:00,
2013-01-21 05:36:00,36.6,27.7,30.14,ESE,106,13.0,22.0,70,0.00,,,0.00,Wunderground v.1.15,2013-01-21 13:36:00,
2013-01-21 05:46:00,36.5,27.6,30.14,ENE,78,14.0,22.0,70,0.00,,,0.00,Wunderground v.1.15,2013-01-21 13:46:00,
2013-01-21 05:51:00,36.4,27.9,30.14,East,82,12.0,21.0,71,0.00,,,0.00,Wunderground v.1.15,2013-01-21 13:51:00,
2013-01-21 06:01:00,36.7,27.8,30.13,East,90,13.0,13.0,70,0.00,,,0.00,Wunderground v.1.15,2013-01-21 14:01:00,
2013-01-21 06:06:00,37.0,28.1,30.13,East,98,13.0,19.0,70,0.00,,,0.00,Wunderground v.1.15,2013-01-21 14:06:00,
2013-01-21 06:16:00,37.2,28.3,30.14,ESE,105,13.0,19.0,70,0.00,,,0.00,Wunderground v.1.15,2013-01-21 14:16:00,
2013-01-21 06:26:00,37.2,28.3,30.14,East,86,12.0,18.0,70,0.00,,,0.00,Wunderground v.1.15,2013-01-21 14:26:00,
2013-01-21 06:37:00,37.0,28.1,30.14,ENE,78,13.0,17.0,70,0.00,,,0.00,Wunderground v.1.15,2013-01-21 14:37:00,
2013-01-21 06:46:00,36.8,28.3,30.14,ESE,103,12.0,17.0,71,0.00,,,0.00,Wunderground v.1.15,2013-01-21 14:46:00,
2013-01-21 06:56:00,36.6,28.4,30.14,East,87,11.0,12.0,72,0.00,,,0.00,Wunderground v.1.15,2013-01-21 14:56:00,
2013-01-21 07:02:00,36.5,28.3,30.14,ESE,107,11.0,20.0,72,0.00,,,0.00,Wunderground v.1.15,2013-01-21 15:02:00,
2013-01-21 07:11:00,36.6,28.4,30.15,ENE,74,11.0,18.0,72,0.00,,,0.00,Wunderground v.1.15,2013-01-21 15:11:00,
2013-01-21 07:21:00,36.6,28.4,30.15,ESE,107,10.0,15.0,72,0.00,,,0.00,Wunderground v.1.15,2013-01-21 15:21:00,
2013-01-21 07:27:00,36.6,28.4,30.15,East,80,9.0,15.0,72,0.00,,,0.00,Wunderground v.1.15,2013-01-21 15:27:00,
2013-01-21 07:36:00,36.4,28.6,30.15,East,92,9.0,14.0,73,0.00,,,0.00,Wunderground v.1.15,2013-01-21 15:36:00,
2013-01-21 07:41:00,36.3,28.5,30.15,East,84,9.0,9.0,73,0.00,,,0.00,Wunderground v.1.15,2013-01-21 15:41:00,
2013-01-21 07:46:00,36.4,28.6,30.15,East,79,9.0,10.0,73,0.00,,,0.00,Wunderground v.1.15,2013-01-21 15:46:00,
2013-01-21 07:56:00,36.4,28.6,30.16,East,89,9.0,14.0,73,0.00,,,0.00,Wunderground v.1.15,2013-01-21 15:56:00,
2013-01-21 08:02:00,36.4,28.6,30.15,East,87,9.0,9.0,73,0.00,,,0.00,Wunderground v.1.15,2013-01-21 16:02:00,
2013-01-21 08:11:00,36.5,28.7,30.16,East,89,9.0,9.0,73,0.00,,,0.00,Wunderground v.1.15,2013-01-21 16:11:00,
2013-01-21 08:21:00,37.1,28.9,30.16,East,92,8.0,8.0,72,0.00,,,0.00,Wunderground v.1.15,2013-01-21 16:21:00,
2013-01-21 08:26:00,37.3,29.1,30.16,East,90,8.0,13.0,72,0.00,,,0.00,Wunderground v.1.15,2013-01-21 16:26:00,
2013-01-21 08:36:00,37.7,29.1,30.17,ENE,69,8.0,13.0,71,0.00,,,0.00,Wunderground v.1.15,2013-01-21 16:36:00,
2013-01-21 08:42:00,38.0,29.1,30.16,East,83,8.0,13.0,70,0.00,,,0.00,Wunderground v.1.15,2013-01-21 16:42:00,
2013-01-21 08:51:00,38.4,29.1,30.16,East,90,9.0,14.0,69,0.00,,,0.00,Wunderground v.1.15,2013-01-21 16:51:00,
2013-01-21 09:01:00,38.7,29.4,30.17,East,96,9.0,14.0,69,0.00,,,0.00,Wunderground v.1.15,2013-01-21 17:01:00,
2013-01-21 09:06:00,39.0,29.3,30.17,East,86,8.0,14.0,68,0.00,,,0.00,Wunderground v.1.15,2013-01-21 17:06:00,
2013-01-21 09:12:00,39.3,29.3,30.17,East,81,7.0,13.0,67,0.00,,,0.00,Wunderground v.1.15,2013-01-21 17:12:00,
2013-01-21 09:21:00,39.9,29.5,30.16,East,90,9.0,13.0,66,0.00,,,0.00,Wunderground v.1.15,2013-01-21 17:21:00,
2013-01-21 09:31:00,40.6,29.7,30.17,East,82,9.0,9.0,65,0.00,,,0.00,Wunderground v.1.15,2013-01-21 17:31:00,
2013-01-21 09:41:00,41.4,29.7,30.17,East,96,9.0,9.0,63,0.00,,,0.00,Wunderground v.1.15,2013-01-21 17:41:00,
2013-01-21 09:51:00,42.0,29.9,30.17,East,88,8.0,8.0,62,0.00,,,0.00,Wunderground v.1.15,2013-01-21 17:51:00,
2013-01-21 10:01:00,42.5,30.0,30.17,ENE,76,8.0,12.0,61,0.00,,,0.00,Wunderground v.1.15,2013-01-21 18:01:00,
2013-01-21 10:06:00,42.9,30.0,30.17,East,92,8.0,13.0,60,0.00,,,0.00,Wunderground v.1.15,2013-01-21 18:06:00,
2013-01-21 10:16:00,43.8,30.4,30.17,East,85,8.0,14.0,59,0.00,,,0.00,Wunderground v.1.15,2013-01-21 18:16:00,
2013-01-21 10:21:00,44.1,30.3,30.17,East,99,8.0,8.0,58,0.00,,,0.00,Wunderground v.1.15,2013-01-21 18:21:00,
2013-01-21 10:26:00,44.4,30.5,30.18,ESE,103,9.0,11.0,58,0.00,,,0.00,Wunderground v.1.15,2013-01-21 18:26:00,
2013-01-21 10:31:00,44.6,30.7,30.18,East,94,9.0,12.0,58,0.00,,,0.00,Wunderground v.1.15,2013-01-21 18:31:00,
2013-01-21 10:36:00,45.0,31.1,30.18,East,90,8.0,12.0,58,0.00,,,0.00,Wunderground v.1.15,2013-01-21 18:36:00,
2013-01-21 10:46:00,45.2,30.4,30.17,ESE,103,11.0,19.0,56,0.00,,,0.00,Wunderground v.1.15,2013-01-21 18:46:00,
2013-01-21 10:51:00,45.6,30.3,30.18,East,86,12.0,19.0,55,0.00,,,0.00,Wunderground v.1.15,2013-01-21 18:51:00,
2013-01-21 11:01:00,46.4,30.6,30.18,East,91,11.0,15.0,54,0.00,,,0.00,Wunderground v.1.15,2013-01-21 19:01:00,
2013-01-21 11:06:00,46.7,30.5,30.18,East,88,10.0,15.0,53,0.00,,,0.00,Wunderground v.1.15,2013-01-21 19:06:00,
2013-01-21 11:16:00,47.4,30.6,30.18,East,92,9.0,15.0,52,0.00,,,0.00,Wunderground v.1.15,2013-01-21 19:16:00,
2013-01-21 11:22:00,47.7,30.9,30.18,ESE,110,9.0,15.0,52,0.00,,,0.00,Wunderground v.1.15,2013-01-21 19:22:00,
2013-01-21 11:31:00,48.2,30.9,30.18,East,100,10.0,10.0,51,0.00,,,0.00,Wunderground v.1.15,2013-01-21 19:31:00,
2013-01-21 11:41:00,48.7,30.9,30.18,East,101,9.0,13.0,50,0.00,,,0.00,Wunderground v.1.15,2013-01-21 19:41:00,
2013-01-21 11:51:00,49.6,31.7,30.17,East,101,7.0,7.0,50,0.00,,,0.00,Wunderground v.1.15,2013-01-21 19:51:00,
2013-01-21 11:56:00,50.2,31.8,30.17,East,91,7.0,11.0,49,0.00,,,0.00,Wunderground v.1.15,2013-01-21 19:56:00,
2013-01-21 12:01:00,50.3,31.3,30.17,ESE,103,7.0,12.0,48,0.00,,,0.00,Wunderground v.1.15,2013-01-21 20:01:00,
2013-01-21 12:11:00,50.8,31.8,30.16,ESE,113,7.0,11.0,48,0.00,,,0.00,Wunderground v.1.15,2013-01-21 20:11:00,
2013-01-21 12:17:00,51.2,32.2,30.16,ESE,104,7.0,11.0,48,0.00,,,0.00,Wunderground v.1.15,2013-01-21 20:17:00,
2013-01-21 12:26:00,51.5,31.9,30.15,East,83,6.0,10.0,47,0.00,,,0.00,Wunderground v.1.15,2013-01-21 20:26:00,
2013-01-21 12:36:00,52.2,33.1,30.15,East,98,5.0,8.0,48,0.00,,,0.00,Wunderground v.1.15,2013-01-21 20:36:00,
2013-01-21 12:46:00,53.0,33.3,30.15,East,101,4.0,6.0,47,0.00,,,0.00,Wunderground v.1.15,2013-01-21 20:46:00,
2013-01-21 12:51:00,53.4,33.1,30.15,East,92,3.0,6.0,46,0.00,,,0.00,Wunderground v.1.15,2013-01-21 20:51:00,
2013-01-21 13:02:00,53.7,32.8,30.14,ENE,68,4.0,6.0,45,0.00,,,0.00,Wunderground v.1.15,2013-01-21 21:02:00,
2013-01-21 13:11:00,53.7,33.4,30.15,ENE,71,2.0,5.0,46,0.00,,,0.00,Wunderground v.1.15,2013-01-21 21:11:00,
2013-01-21 13:16:00,54.3,33.4,30.15,ENE,71,1.0,5.0,45,0.00,,,0.00,Wunderground v.1.15,2013-01-21 21:16:00,
2013-01-21 13:21:00,54.6,33.1,30.14,ENE,71,1.0,4.0,44,0.00,,,0.00,Wunderground v.1.15,2013-01-21 21:21:00,
2013-01-21 13:32:00,55.0,35.1,30.15,ENE,71,1.0,1.0,47,0.00,,,0.00,Wunderground v.1.15,2013-01-21 21:32:00,
2013-01-21 13:41:00,55.1,34.1,30.14,ESE,118,2.0,8.0,45,0.00,,,0.00,Wunderground v.1.15,2013-01-21 21:41:00,
2013-01-21 13:52:00,55.3,33.2,30.14,ENE,57,2.0,6.0,43,0.00,,,0.00,Wunderground v.1.15,2013-01-21 21:52:00,
2013-01-21 14:01:00,55.0,32.9,30.13,NE,42,3.0,3.0,43,0.00,,,0.00,Wunderground v.1.15,2013-01-21 22:01:00,
2013-01-21 14:11:00,54.6,35.8,30.13,NE,40,1.0,1.0,49,0.00,,,0.00,Wunderground v.1.15,2013-01-21 22:11:00,
2013-01-21 14:22:00,54.9,33.9,30.13,NE,43,2.0,5.0,45,0.00,,,0.00,Wunderground v.1.15,2013-01-21 22:22:00,
2013-01-21 14:27:00,55.1,33.6,30.13,NE,42,3.0,5.0,44,0.00,,,0.00,Wunderground v.1.15,2013-01-21 22:27:00,
2013-01-21 14:36:00,54.7,39.8,30.13,NE,42,1.0,5.0,57,0.00,,,0.00,Wunderground v.1.15,2013-01-21 22:36:00,
2013-01-21 14:46:00,53.3,40.2,30.13,NE,42,1.0,3.0,61,0.00,,,0.00,Wunderground v.1.15,2013-01-21 22:46:00,
2013-01-21 14:57:00,54.0,34.2,30.12,East,84,2.0,4.0,47,0.00,,,0.00,Wunderground v.1.15,2013-01-21 22:57:00,
2013-01-21 15:06:00,54.9,33.9,30.12,ENE,73,4.0,5.0,45,0.00,,,0.00,Wunderground v.1.15,2013-01-21 23:06:00,
2013-01-21 15:12:00,54.8,33.8,30.12,East,98,4.0,4.0,45,0.00,,,0.00,Wunderground v.1.15,2013-01-21 23:12:00,
2013-01-21 15:21:00,54.4,32.9,30.12,East,86,6.0,6.0,44,0.00,,,0.00,Wunderground v.1.15,2013-01-21 23:21:00,
2013-01-21 15:31:00,54.0,32.6,30.12,East,99,6.0,12.0,44,0.00,,,0.00,Wunderground v.1.15,2013-01-21 23:31:00,
2013-01-21 15:41:00,54.1,33.2,30.13,East,84,4.0,4.0,45,0.00,,,0.00,Wunderground v.1.15,2013-01-21 23:41:00,
2013-01-21 15:52:00,54.5,33.6,30.13,East,86,1.0,1.0,45,0.00,,,0.00,Wunderground v.1.15,2013-01-21 23:52:00,
2013-01-21 16:01:00,54.4,33.5,30.13,East,87,1.0,1.0,45,0.00,,,0.00,Wunderground v.1.15,2013-01-22 00:01:00,
2013-01-21 16:11:00,54.7,34.3,30.13,East,87,0.0,3.0,46,0.00,,,0.00,Wunderground v.1.15,2013-01-22 00:11:00,
2013-01-21 16:17:00,54.6,33.7,30.13,East,87,1.0,3.0,45,0.00,,,0.00,Wunderground v.1.15,2013-01-22 00:17:00,
2013-01-21 16:26:00,54.0,34.2,30.13,East,87,2.0,5.0,47,0.00,,,0.00,Wunderground v.1.15,2013-01-22 00:26:00,
2013-01-21 16:37:00,53.0,33.8,30.13,East,87,3.0,5.0,48,0.00,,,0.00,Wunderground v.1.15,2013-01-22 00:37:00,
2013-01-21 16:46:00,51.7,33.6,30.13,East,92,5.0,7.0,50,0.00,,,0.00,Wunderground v.1.15,2013-01-22 00:46:00,
2013-01-21 16:56:00,50.7,33.7,30.13,East,87,4.0,7.0,52,0.00,,,0.00,Wunderground v.1.15,2013-01-22 00:56:00,
2013-01-21 17:07:00,49.6,33.6,30.13,East,88,5.0,8.0,54,0.00,,,0.00,Wunderground v.1.15,2013-01-22 01:07:00,
2013-01-21 17:11:00,49.1,33.6,30.13,East,92,5.0,8.0,55,0.00,,,0.00,Wunderground v.1.15,2013-01-22 01:11:00,
2013-01-21 17:21:00,48.1,33.6,30.13,East,88,5.0,8.0,57,0.00,,,0.00,Wunderground v.1.15,2013-01-22 01:21:00,
2013-01-21 17:31:00,47.5,33.4,30.13,East,87,5.0,7.0,58,0.00,,,0.00,Wunderground v.1.15,2013-01-22 01:31:00,
2013-01-21 17:42:00,46.9,33.3,30.13,East,87,4.0,4.0,59,0.00,,,0.00,Wunderground v.1.15,2013-01-22 01:42:00,
2013-01-21 17:51:00,46.1,33.4,30.13,East,88,4.0,6.0,61,0.00,,,0.00,Wunderground v.1.15,2013-01-22 01:51:00,
2013-01-21 18:01:00,45.1,33.2,30.13,East,88,4.0,4.0,63,0.00,,,0.00,Wunderground v.1.15,2013-01-22 02:01:00,
2013-01-21 18:11:00,45.0,33.2,30.12,East,83,5.0,7.0,63,0.00,,,0.00,Wunderground v.1.15,2013-01-22 02:11:00,
2013-01-21 18:21:00,45.1,32.8,30.12,East,84,5.0,5.0,62,0.00,,,0.00,Wunderground v.1.15,2013-01-22 02:21:00,
2013-01-21 18:31:00,45.1,32.8,30.12,East,84,5.0,9.0,62,0.00,,,0.00,Wunderground v.1.15,2013-01-22 02:31:00,
2013-01-21 18:37:00,45.0,32.8,30.12,East,88,6.0,9.0,62,0.00,,,0.00,Wunderground v.1.15,2013-01-22 02:37:00,
2013-01-21 18:46:00,44.7,32.9,30.11,East,83,6.0,7.0,63,0.00,,,0.00,Wunderground v.1.15,2013-01-22 02:46:00,
2013-01-21 18:51:00,44.5,32.7,30.11,East,94,6.0,9.0,63,0.00,,,0.00,Wunderground v.1.15,2013-01-22 02:51:00,
2013-01-21 19:01:00,44.1,32.7,30.11,East,90,7.0,7.0,64,0.00,,,0.00,Wunderground v.1.15,2013-01-22 03:01:00,
2013-01-21 19:06:00,44.0,32.6,30.11,East,82,8.0,8.0,64,0.00,,,0.00,Wunderground v.1.15,2013-01-22 03:06:00,
2013-01-21 19:16:00,44.3,32.9,30.10,East,86,8.0,13.0,64,0.00,,,0.00,Wunderground v.1.15,2013-01-22 03:16:00,
2013-01-21 19:22:00,44.3,32.5,30.10,East,86,8.0,8.0,63,0.00,,,0.00,Wunderground v.1.15,2013-01-22 03:22:00,
2013-01-21 19:27:00,44.4,32.2,30.10,East,92,8.0,9.0,62,0.00,,,0.00,Wunderground v.1.15,2013-01-22 03:27:00,
2013-01-21 19:36:00,44.4,31.8,30.10,ESE,102,8.0,12.0,61,0.00,,,0.00,Wunderground v.1.15,2013-01-22 03:36:00,
2013-01-21 19:46:00,43.8,31.6,30.11,East,90,7.0,12.0,62,0.00,,,0.00,Wunderground v.1.15,2013-01-22 03:46:00,
2013-01-21 19:56:00,43.5,31.7,30.11,East,95,7.0,11.0,63,0.00,,,0.00,Wunderground v.1.15,2013-01-22 03:56:00,
2013-01-21 20:07:00,43.4,31.6,30.11,East,88,7.0,11.0,63,0.00,,,0.00,Wunderground v.1.15,2013-01-22 04:07:00,
2013-01-21 20:17:00,43.3,31.5,30.11,East,88,7.0,11.0,63,0.00,,,0.00,Wunderground v.1.15,2013-01-22 04:17:00,
2013-01-21 20:26:00,42.8,31.5,30.11,East,85,6.0,9.0,64,0.00,,,0.00,Wunderground v.1.15,2013-01-22 04:26:00,
2013-01-21 20:37:00,43.2,31.1,30.10,ENE,71,7.0,12.0,62,0.00,,,0.00,Wunderground v.1.15,2013-01-22 04:37:00,
2013-01-21 20:46:00,43.1,31.0,30.11,East,83,7.0,11.0,62,0.00,,,0.00,Wunderground v.1.15,2013-01-22 04:46:00,
2013-01-21 20:56:00,42.8,30.7,30.11,East,96,8.0,12.0,62,0.00,,,0.00,Wunderground v.1.15,2013-01-22 04:56:00,
2013-01-21 21:01:00,42.8,30.7,30.11,East,94,8.0,12.0,62,0.00,,,0.00,Wunderground v.1.15,2013-01-22 05:01:00,
2013-01-21 21:06:00,42.8,30.7,30.11,East,83,8.0,12.0,62,0.00,,,0.00,Wunderground v.1.15,2013-01-22 05:06:00,
2013-01-21 21:11:00,42.7,30.6,30.11,East,86,7.0,11.0,62,0.00,,,0.00,Wunderground v.1.15,2013-01-22 05:11:00,
2013-01-21 21:22:00,42.3,30.6,30.11,East,84,7.0,12.0,63,0.00,,,0.00,Wunderground v.1.15,2013-01-22 05:22:00,
2013-01-21 21:27:00,42.4,30.3,30.11,East,86,7.0,12.0,62,0.00,,,0.00,Wunderground v.1.15,2013-01-22 05:27:00,
2013-01-21 21:36:00,42.3,30.2,30.11,East,84,8.0,11.0,62,0.00,,,0.00,Wunderground v.1.15,2013-01-22 05:36:00,
2013-01-21 21:46:00,41.9,30.2,30.11,East,83,8.0,14.0,63,0.00,,,0.00,Wunderground v.1.15,2013-01-22 05:46:00,
2013-01-21 21:56:00,41.7,30.0,30.11,East,86,7.0,12.0,63,0.00,,,0.00,Wunderground v.1.15,2013-01-22 05:56:00,
2013-01-21 22:06:00,41.5,30.2,30.10,East,94,8.0,12.0,64,0.00,,,0.00,Wunderground v.1.15,2013-01-22 06:06:00,
2013-01-21 22:17:00,41.8,30.1,30.10,East,84,9.0,13.0,63,0.00,,,0.00,Wunderground v.1.15,2013-01-22 06:17:00,
2013-01-21 22:26:00,42.3,29.8,30.09,East,88,10.0,15.0,61,0.00,,,0.00,Wunderground v.1.15,2013-01-22 06:26:00,
2013-01-21 22:36:00,42.1,29.2,30.09,ENE,78,11.0,12.0,60,0.00,,,0.00,Wunderground v.1.15,2013-01-22 06:36:00,
2013-01-21 22:46:00,41.8,29.3,30.09,ENE,69,12.0,19.0,61,0.00,,,0.00,Wunderground v.1.15,2013-01-22 06:46:00,
2013-01-21 22:51:00,41.5,29.0,30.09,East,88,12.0,19.0,61,0.00,,,0.00,Wunderground v.1.15,2013-01-22 06:51:00,
2013-01-21 22:57:00,41.5,29.0,30.09,ESE,105,12.0,20.0,61,0.00,,,0.00,Wunderground v.1.15,2013-01-22 06:57:00,
2013-01-21 23:06:00,41.3,28.9,30.08,East,90,12.0,18.0,61,0.00,,,0.00,Wunderground v.1.15,2013-01-22 07:06:00,
2013-01-21 23:17:00,41.4,28.9,30.08,East,88,14.0,21.0,61,0.00,,,0.00,Wunderground v.1.15,2013-01-22 07:17:00,
2013-01-21 23:26:00,41.4,28.5,30.08,East,88,13.0,22.0,60,0.00,,,0.00,Wunderground v.1.15,2013-01-22 07:26:00,
2013-01-21 23:36:00,40.9,28.5,30.09,East,80,11.0,18.0,61,0.00,,,0.00,Wunderground v.1.15,2013-01-22 07:36:00,
2013-01-21 23:46:00,40.7,28.3,30.09,East,79,11.0,19.0,61,0.00,,,0.00,Wunderground v.1.15,2013-01-22 07:46:00,
2013-01-21 23:56:00,40.7,28.3,30.09,East,86,11.0,15.0,61,0.00,,,0.00,Wunderground v.1.15,2013-01-22 07:56:00,